Volver al catálogo

STARLINK-4616

ActivoComunicacionesVLEO
NORAD 53734·PAYLOAD·🇺🇸 United States

Lanzado Sep 5, 2022 desde Cape Canaveral Space Force Station

Loading…

Próximos Pases (próximas 24 horas)

TLE

ActualizadoSource: CelesTrak SupGP

Época: Sep 15, 2026, 02:59 UTC

1 53734C 22107AL  26258.12479167  .00012971  00000+0  38323-3 0  2583
2 53734  53.1585 111.1831 0001122  84.2035 200.9241 15.34383940    14

Sigue STARLINK-4616 en tiempo real con AllMySat

Download on the App Store